Weather History for Clinton, OK

Change the Weather History Date:

Friday, November 9, 2012

  Actual Average (KCSM) Record (KCSM)
Temperature  
Mean Temperature 70 °F -  
Max Temperature 80 °F 58 °F 82 °F (2002)
Min Temperature 59 °F 41 °F 30 °F (2000)
Cooling Degree Days 4    
Growing Degree Days 20 (Base 50)    
Moisture  
Dew Point 50 °F    
Average Humidity 51    
Maximum Humidity 72    
Minimum Humidity 30    
Precipitation  
Precipitation 0.00 in - - ()
Sea Level Pressure  
Sea Level Pressure 29.82 in    
Wind  
Wind Speed 16 mph (South)    
Max Wind Speed 25 mph    
Max Gust Speed 32 mph    
Visibility 10 miles    
Events      
Averages and records for this station are not official NWS values.
T = Trace of Precipitation, MM = Missing Value Source: NWS Daily Summary

Daily Weather History Graph

Daily Weather History Graph

Search for Another Location

Airport:

Trip Planner

Search our weather history database for the weather conditions in past years. The results will help you decide how hot, cold, wet, or windy it might be!

Date:

Astronomy

Nov. 09, 2012 Rise Set
Actual Time 7:05 AM CST 5:32 PM CST
Civil Twilight 6:39 AM CST 5:59 PM CST
Nautical Twilight 6:08 AM CST 6:30 PM CST
Astronomical Twilight 5:38 AM CST 7:00 PM CST
Moon 2:15 AM CST (11/9) 2:38 PM CST (11/9)
Length of Visible Light 11h 20m
Length of Day
10h 27m
Waning Crescent, 23% of the Moon is Illuminated
Nov 9
Waning Crescent
Nov 13
New
Nov 20
First Quarter
Nov 28
Full
Dec 6
Last Quarter

Hourly Weather History & Observations

Time (CST) Temp. Dew Point Humidity Pressure Visibility Wind Dir Wind Speed Gust Speed Precip Events Conditions
12:15 AM 66.2 °F 50.0 °F 56% 29.84 in 10.0 mi South 15.0 mph 19.6 mph N/A   Clear
12:35 AM 66.2 °F 50.0 °F 56% 29.84 in 10.0 mi South 12.7 mph - N/A   Clear
12:55 AM 64.4 °F 50.0 °F 59% 29.85 in 10.0 mi SSE 11.5 mph - N/A   Clear
1:15 AM 64.4 °F 50.0 °F 59% 29.85 in 10.0 mi SSE 12.7 mph - N/A   Clear
1:35 AM 64.4 °F 50.0 °F 59% 29.85 in 10.0 mi SSE 10.4 mph - N/A   Clear
1:55 AM 64.4 °F 50.0 °F 59% 29.85 in 10.0 mi South 10.4 mph - N/A   Clear
2:15 AM 64.4 °F 50.0 °F 59% 29.85 in 10.0 mi South 13.8 mph - N/A   Clear
2:35 AM 62.6 °F 50.0 °F 63% 29.85 in 10.0 mi SSE 10.4 mph - N/A   Clear
2:55 AM 62.6 °F 50.0 °F 63% 29.85 in 10.0 mi SSE 11.5 mph 17.3 mph N/A   Clear
3:15 AM 62.6 °F 50.0 °F 63% 29.85 in 10.0 mi SSE 11.5 mph - N/A   Clear
3:35 AM 62.6 °F 50.0 °F 63% 29.85 in 10.0 mi SSE 10.4 mph - N/A   Clear
3:55 AM 60.8 °F 50.0 °F 68% 29.85 in 10.0 mi South 11.5 mph - N/A   Clear
4:15 AM 60.8 °F 50.0 °F 68% 29.85 in 10.0 mi SSE 11.5 mph - N/A   Clear
4:35 AM 60.8 °F 50.0 °F 68% 29.85 in 10.0 mi SSE 11.5 mph - N/A   Clear
5:15 AM 59.0 °F 50.0 °F 72% 29.85 in 10.0 mi SSE 11.5 mph - N/A   Clear
5:35 AM 59.0 °F 50.0 °F 72% 29.85 in 10.0 mi SSE 13.8 mph - N/A   Clear
6:15 AM 59.0 °F 50.0 °F 72% 29.85 in 10.0 mi SSE 12.7 mph - N/A   Clear
6:35 AM 59.0 °F 50.0 °F 72% 29.85 in 10.0 mi SSE 12.7 mph - N/A   Clear
6:55 AM 59.0 °F 50.0 °F 72% 29.85 in 10.0 mi SSE 12.7 mph - N/A   Clear
7:15 AM 59.0 °F 48.2 °F 67% 29.85 in 10.0 mi SSE 16.1 mph - N/A   Clear
7:35 AM 59.0 °F 48.2 °F 67% 29.85 in 10.0 mi South 16.1 mph - N/A   Clear
7:55 AM 59.0 °F 50.0 °F 72% 29.86 in 10.0 mi South 18.4 mph - N/A   Clear
8:15 AM 60.8 °F 50.0 °F 68% 29.86 in 10.0 mi South 18.4 mph - N/A   Clear
8:35 AM 62.6 °F 50.0 °F 63% 29.87 in 10.0 mi South 20.7 mph 25.3 mph N/A   Clear
9:15 AM 64.4 °F 51.8 °F 64% 29.87 in 10.0 mi South 20.7 mph 25.3 mph N/A   Clear
9:35 AM 66.2 °F 51.8 °F 60% 29.87 in 10.0 mi South 19.6 mph 25.3 mph N/A   Clear
9:55 AM 68.0 °F 51.8 °F 56% 29.87 in 10.0 mi South 21.9 mph 28.8 mph N/A   Clear
10:15 AM 69.8 °F 51.8 °F 53% 29.86 in 10.0 mi South 21.9 mph 27.6 mph N/A   Clear
10:35 AM 69.8 °F 51.8 °F 53% 29.86 in 10.0 mi South 24.2 mph 27.6 mph N/A   Clear
10:55 AM 71.6 °F 51.8 °F 50% 29.86 in 10.0 mi South 23.0 mph 28.8 mph N/A   Clear
11:15 AM 71.6 °F 51.8 °F 50% 29.86 in 10.0 mi South 19.6 mph 25.3 mph N/A   Clear
11:35 AM 73.4 °F 51.8 °F 47% 29.85 in 10.0 mi South 18.4 mph 24.2 mph N/A   Clear
11:55 AM 73.4 °F 50.0 °F 44% 29.84 in 10.0 mi South 21.9 mph 26.5 mph N/A   Clear
12:15 PM 75.2 °F 50.0 °F 41% 29.83 in 10.0 mi South 17.3 mph 26.5 mph N/A   Clear
12:35 PM 77.0 °F 50.0 °F 39% 29.82 in 10.0 mi South 18.4 mph 24.2 mph N/A   Clear
12:55 PM 78.8 °F 46.4 °F 32% 29.80 in 10.0 mi South 19.6 mph - N/A   Clear
1:15 PM 78.8 °F 48.2 °F 34% 29.79 in 10.0 mi South 21.9 mph 26.5 mph N/A   Clear
1:35 PM 78.8 °F 46.4 °F 32% 29.78 in 10.0 mi South 23.0 mph 27.6 mph N/A   Clear
1:55 PM 78.8 °F 48.2 °F 34% 29.77 in 10.0 mi South 20.7 mph 29.9 mph N/A   Clear
2:15 PM 80.6 °F 46.4 °F 30% 29.76 in 10.0 mi South 23.0 mph 28.8 mph N/A   Clear
2:35 PM 78.8 °F 48.2 °F 34% 29.76 in 10.0 mi South 21.9 mph 32.2 mph N/A   Clear
2:55 PM 80.6 °F 48.2 °F 32% 29.76 in 10.0 mi South 25.3 mph 32.2 mph N/A   Clear
3:15 PM 80.6 °F 48.2 °F 32% 29.76 in 10.0 mi South 19.6 mph 29.9 mph N/A   Clear
3:35 PM 78.8 °F 50.0 °F 36% 29.76 in 10.0 mi South 21.9 mph 28.8 mph N/A   Clear
3:55 PM 78.8 °F 50.0 °F 36% 29.76 in 10.0 mi South 23.0 mph 31.1 mph N/A   Clear
4:35 PM 78.8 °F 50.0 °F 36% 29.75 in 10.0 mi South 21.9 mph 28.8 mph N/A   Clear
4:55 PM 78.8 °F 50.0 °F 36% 29.74 in 10.0 mi South 20.7 mph 29.9 mph N/A   Clear
5:15 PM 78.8 °F 48.2 °F 34% 29.74 in 10.0 mi South 18.4 mph - N/A   Clear
5:35 PM 77.0 °F 48.2 °F 36% 29.74 in 10.0 mi South 19.6 mph 23.0 mph N/A   Clear
5:55 PM 75.2 °F 50.0 °F 41% 29.75 in 10.0 mi South 17.3 mph 21.9 mph N/A   Clear
6:15 PM 75.2 °F 48.2 °F 38% 29.75 in 10.0 mi South 18.4 mph 25.3 mph N/A   Clear
6:35 PM 75.2 °F 48.2 °F 38% 29.76 in 10.0 mi South 19.6 mph - N/A   Clear
6:55 PM 73.4 °F 50.0 °F 44% 29.77 in 10.0 mi South 18.4 mph - N/A   Clear
7:15 PM 73.4 °F 50.0 °F 44% 29.77 in 10.0 mi South 19.6 mph 24.2 mph N/A   Clear
7:35 PM 73.4 °F 50.0 °F 44% 29.78 in 10.0 mi South 17.3 mph - N/A   Clear
7:55 PM 71.6 °F 50.0 °F 46% 29.78 in 10.0 mi South 15.0 mph - N/A   Clear
8:15 PM 71.6 °F 50.0 °F 46% 29.78 in 10.0 mi South 18.4 mph 23.0 mph N/A   Clear
8:35 PM 71.6 °F 51.8 °F 50% 29.79 in 10.0 mi South 19.6 mph 24.2 mph N/A   Clear
8:55 PM 69.8 °F 51.8 °F 53% 29.80 in 10.0 mi South 17.3 mph - N/A   Clear
9:15 PM 69.8 °F 51.8 °F 53% 29.80 in 10.0 mi South 18.4 mph 21.9 mph N/A   Clear
9:35 PM 69.8 °F 51.8 °F 53% 29.80 in 10.0 mi South 18.4 mph 25.3 mph N/A   Clear
9:55 PM 71.6 °F 51.8 °F 50% 29.80 in 10.0 mi South 20.7 mph - N/A   Clear
10:15 PM 69.8 °F 51.8 °F 53% 29.80 in 10.0 mi South 19.6 mph 25.3 mph N/A   Clear
10:35 PM 69.8 °F 51.8 °F 53% 29.80 in 10.0 mi South 21.9 mph 27.6 mph N/A   Clear
10:55 PM 69.8 °F 50.0 °F 49% 29.80 in 10.0 mi South 20.7 mph 27.6 mph N/A   Clear
11:15 PM 69.8 °F 50.0 °F 49% 29.80 in 10.0 mi South 20.7 mph 26.5 mph N/A   Clear
11:35 PM 69.8 °F 50.0 °F 49% 29.80 in 10.0 mi South 21.9 mph 28.8 mph N/A   Clear
11:55 PM 69.8 °F 50.0 °F 49% 29.82 in 10.0 mi South 20.7 mph 24.2 mph N/A   Clear